Galesburg, IL

2:51 PM CDT on July 23, 2016 (GMT -0500)
Galesburg Municipal

Weather History for KGBG - April, 2014

Change the Weather History Date:

Thursday, April 17, 2014

  Actual Average Record
Temperature  
Mean Temperature 46 °F -  
Max Temperature 52 °F 64 °F 85 °F (1977)
Min Temperature 39 °F 41 °F 26 °F (1983)
Degree Days  
Heating Degree Days 20    
Moisture  
Dew Point 36 °F    
Average Humidity 70    
Maximum Humidity 87    
Minimum Humidity 58    
Precipitation  
Precipitation 0.00 in - - ()
Sea Level Pressure  
Sea Level Pressure 30.19 in    
Wind  
Wind Speed 10 mph (SW)    
Max Wind Speed 15 mph    
Max Gust Speed 22 mph    
Visibility 10 miles    
Events      
Averages and records for this station are not official NWS values.
T = Trace of Precipitation, MM = Missing Value Source: NWS Daily Summary

Daily Weather History Graph

Daily Weather History Graph

Search for Another Location

Airport or City:

Trip Planner

Search our weather history database for the weather conditions in past years. The results will help you decide how hot, cold, wet, or windy it might be!

Date:

Astronomy

Apr. 17, 2014 Rise Set
Actual Time 6:19 AM CDT 7:43 PM CDT
Civil Twilight 5:51 AM CDT 8:12 PM CDT
Nautical Twilight 5:16 AM CDT 8:46 PM CDT
Astronomical Twilight 4:40 AM CDT 9:23 PM CDT
Moon 10:30 PM CDT (4/17) 7:50 AM CDT (4/17)
Length of Visible Light 14h 21m
Length of Day
13h 23m
Waning Gibbous, 93% of the Moon is Illuminated
Apr 17
Waning Gibbous
Apr 22
Last Quarter
Apr 29
New
May 6
First Quarter
May 14
Full

Hourly Weather History & Observations

Time (CDT) Temp. Windchill Dew Point Humidity Pressure Visibility Wind Dir Wind Speed Gust Speed Precip Events Conditions
12:15 AM 45.3 °F 39.7 °F 31.8 °F 59% 30.05 in 10.0 mi SSE 11.5 mph 19.6 mph N/A   Clear
12:35 AM 45.0 °F 39.3 °F 31.8 °F 60% 30.05 in 10.0 mi SSE 11.5 mph 17.3 mph N/A   Clear
12:55 AM 44.4 °F 37.9 °F 31.8 °F 61% 30.05 in 10.0 mi SSE 13.8 mph 18.4 mph N/A   Clear
1:15 AM 44.1 °F 37.4 °F 32.0 °F 63% 30.04 in 10.0 mi SSE 13.8 mph - N/A   Clear
1:35 AM 43.7 °F 37.7 °F 32.0 °F 63% 30.04 in 10.0 mi SSE 11.5 mph 19.6 mph N/A   Clear
1:55 AM 43.2 °F 37.4 °F 32.0 °F 65% 30.04 in 10.0 mi SSE 10.4 mph 16.1 mph N/A   Clear
2:15 AM 43.3 °F 36.8 °F 32.0 °F 64% 30.04 in 10.0 mi SSE 12.7 mph 17.3 mph N/A   Clear
2:35 AM 43.9 °F 37.5 °F 31.6 °F 62% 30.03 in 10.0 mi SSE 12.7 mph - N/A   Clear
2:55 AM 44.1 °F 37.1 °F 31.6 °F 62% 30.03 in 10.0 mi South 15.0 mph 21.9 mph N/A   Clear
3:15 AM 44.4 °F 38.6 °F 31.3 °F 60% 30.04 in 10.0 mi South 11.5 mph 21.9 mph N/A   Clear
3:35 AM 44.8 °F 38.3 °F 31.1 °F 59% 30.04 in 10.0 mi South 13.8 mph 20.7 mph N/A   Clear
3:55 AM 44.6 °F 37.8 °F 31.5 °F 60% 30.05 in 10.0 mi South 15.0 mph 20.7 mph N/A   Clear
4:15 AM 43.9 °F 37.2 °F 31.6 °F 62% 30.05 in 10.0 mi South 13.8 mph - N/A   Clear
4:35 AM 43.7 °F 37.3 °F 32.0 °F 63% 30.06 in 10.0 mi South 12.7 mph - N/A   Clear
4:55 AM 41.4 °F 35.7 °F 32.0 °F 69% 30.07 in 10.0 mi SSW 9.2 mph - N/A   Clear
5:15 AM 41.4 °F 36.2 °F 32.0 °F 69% 30.08 in 10.0 mi SW 8.1 mph - N/A   Clear
5:35 AM 41.4 °F 36.2 °F 32.0 °F 69% 30.10 in 10.0 mi WSW 8.1 mph - N/A   Clear
5:55 AM 41.0 °F 36.4 °F 32.0 °F 70% 30.11 in 10.0 mi SW 6.9 mph - N/A   Clear
6:15 AM 40.6 °F 36.7 °F 32.7 °F 73% 30.12 in 10.0 mi SW 5.8 mph - N/A   Scattered Clouds
6:35 AM 41.0 °F 35.8 °F 36.0 °F 82% 30.13 in 10.0 mi West 8.1 mph - N/A   Mostly Cloudy
6:55 AM 42.3 °F 36.3 °F 38.7 °F 87% 30.14 in 10.0 mi West 10.4 mph - N/A   Overcast
7:15 AM 42.8 °F 37.5 °F 39.2 °F 87% 30.15 in 10.0 mi West 9.2 mph - N/A   Overcast
7:35 AM 42.8 °F 36.2 °F 38.7 °F 85% 30.16 in 10.0 mi West 12.7 mph 18.4 mph N/A   Overcast
7:55 AM 42.8 °F 35.8 °F 37.6 °F 82% 30.17 in 10.0 mi West 13.8 mph - N/A   Overcast
8:15 AM 42.1 °F 34.9 °F 37.0 °F 82% 30.18 in 10.0 mi West 13.8 mph - N/A   Overcast
8:35 AM 41.2 °F 34.1 °F 36.0 °F 82% 30.19 in 10.0 mi West 12.7 mph - N/A   Overcast
8:55 AM 41.9 °F 35.0 °F 36.5 °F 81% 30.19 in 10.0 mi West 12.7 mph - N/A   Overcast
9:15 AM 42.1 °F 35.7 °F 36.5 °F 81% 30.20 in 10.0 mi West 11.5 mph - N/A   Overcast
9:35 AM 43.0 °F 36.4 °F 36.7 °F 78% 30.21 in 10.0 mi West 12.7 mph - N/A   Overcast
9:55 AM 43.9 °F 37.9 °F 37.2 °F 77% 30.21 in 10.0 mi West 11.5 mph - N/A   Mostly Cloudy
10:15 AM 44.1 °F 37.7 °F 36.9 °F 76% 30.22 in 10.0 mi WNW 12.7 mph - N/A   Scattered Clouds
10:35 AM 44.2 °F 38.4 °F 36.9 °F 75% 30.23 in 10.0 mi WNW 11.5 mph - N/A   Scattered Clouds
10:55 AM 44.6 °F 38.8 °F 36.9 °F 74% 30.24 in 10.0 mi West 11.5 mph - N/A   Scattered Clouds
11:15 AM 45.1 °F 41.4 °F 36.9 °F 73% 30.25 in 10.0 mi West 6.9 mph - N/A   Mostly Cloudy
11:35 AM 45.7 °F 40.6 °F 37.2 °F 72% 30.26 in 10.0 mi WSW 10.4 mph - N/A   Overcast
11:55 AM 46.4 °F 42.4 °F 37.4 °F 71% 30.25 in 10.0 mi West 8.1 mph - N/A   Overcast
12:15 PM 46.9 °F - 37.0 °F 68% 30.26 in 10.0 mi West 10.4 mph - N/A   Overcast
12:35 PM 46.6 °F - 37.0 °F 69% 30.25 in 10.0 mi West 10.4 mph - N/A   Overcast
12:55 PM 47.5 °F - 37.0 °F 67% 30.25 in 10.0 mi West 9.2 mph - N/A   Mostly Cloudy
1:15 PM 47.8 °F - 37.0 °F 66% 30.25 in 10.0 mi West 9.2 mph - N/A   Mostly Cloudy
1:35 PM 48.7 °F - 37.6 °F 65% 30.25 in 10.0 mi West 8.1 mph - N/A   Scattered Clouds
1:55 PM 49.1 °F - 37.4 °F 64% 30.25 in 10.0 mi West 9.2 mph - N/A   Clear
2:15 PM 50.0 °F - 37.4 °F 62% 30.25 in 10.0 mi WSW 3.5 mph - N/A   Clear
2:35 PM 50.0 °F - 37.4 °F 62% 30.25 in 10.0 mi SW 9.2 mph - N/A   Clear
2:55 PM 49.5 °F - 37.8 °F 64% 30.25 in 10.0 mi SW 6.9 mph - N/A   Scattered Clouds
3:15 PM 50.2 °F - 38.3 °F 64% 30.25 in 10.0 mi SW 8.1 mph - N/A   Scattered Clouds
3:35 PM 50.2 °F - 37.9 °F 63% 30.24 in 10.0 mi SSW 5.8 mph - N/A   Clear
3:55 PM 51.3 °F - 38.1 °F 61% 30.24 in 10.0 mi Calm Calm - N/A   Scattered Clouds
4:15 PM 52.2 °F - 38.3 °F 59% 30.24 in 10.0 mi SSW 6.9 mph - N/A   Clear
4:35 PM 52.2 °F - 38.3 °F 59% 30.24 in 10.0 mi WSW 5.8 mph - N/A   Clear
4:55 PM 52.7 °F - 38.3 °F 58% 30.25 in 10.0 mi SW 5.8 mph - N/A   Clear
5:15 PM 51.8 °F - 38.5 °F 60% 30.25 in 10.0 mi SSW 6.9 mph - N/A   Clear
5:35 PM 52.3 °F - 38.1 °F 58% 30.25 in 10.0 mi SW 5.8 mph - N/A   Clear
5:55 PM 51.4 °F - 38.7 °F 62% 30.25 in 10.0 mi SSW 6.9 mph - N/A   Clear
6:15 PM 50.5 °F - 38.5 °F 63% 30.25 in 10.0 mi South 6.9 mph - N/A   Clear
6:35 PM 50.0 °F - 38.3 °F 64% 30.25 in 10.0 mi SSW 9.2 mph - N/A   Clear
6:55 PM 49.5 °F - 38.3 °F 65% 30.25 in 10.0 mi South 6.9 mph - N/A   Clear
7:15 PM 49.1 °F - 38.1 °F 66% 30.26 in 10.0 mi South 6.9 mph - N/A   Clear
7:35 PM 48.2 °F - 38.3 °F 69% 30.26 in 10.0 mi SSW 6.9 mph - N/A   Clear
7:55 PM 46.4 °F 43.5 °F 37.8 °F 72% 30.27 in 10.0 mi SSW 5.8 mph - N/A   Clear
8:15 PM 45.5 °F 42.5 °F 37.4 °F 73% 30.27 in 10.0 mi SW 5.8 mph - N/A   Clear
8:35 PM 45.7 °F 43.4 °F 37.6 °F 73% 30.27 in 10.0 mi SW 4.6 mph - N/A   Clear
8:55 PM 45.3 °F 43.0 °F 37.4 °F 74% 30.27 in 10.0 mi SW 4.6 mph - N/A   Clear
9:15 PM 45.1 °F - 37.2 °F 74% 30.27 in 10.0 mi Calm Calm - N/A   Clear
9:35 PM 43.7 °F - 36.9 °F 77% 30.27 in 10.0 mi Calm Calm - N/A   Clear
9:55 PM 43.2 °F - 36.9 °F 78% 30.27 in 10.0 mi Calm Calm - N/A   Clear
10:15 PM 43.0 °F 41.3 °F 37.0 °F 80% 30.27 in 10.0 mi WSW 3.5 mph - N/A   Clear
10:35 PM 41.2 °F - 36.1 °F 82% 30.27 in 10.0 mi Calm Calm - N/A   Clear
10:55 PM 41.2 °F - 36.5 °F 83% 30.27 in 10.0 mi Calm Calm - N/A   Clear
11:15 PM 41.0 °F - 36.1 °F 83% 30.27 in 10.0 mi Calm Calm - N/A   Clear
11:35 PM 39.9 °F 37.8 °F 35.6 °F 85% 30.27 in 10.0 mi West 3.5 mph - N/A   Clear
11:55 PM 39.9 °F 36.7 °F 35.6 °F 85% 30.27 in 10.0 mi West 4.6 mph - N/A   Clear